Wind_Speed
14 16 17 21 23 25 27 26 24 23 23 24 26 25 24 25 24 24 24 23 23 22 20 20 20 20 18 16 16 14 12 12 11 11 10 9 9 9 9 9 9 10 12 13 14 15 16 17 18 18 17 17 17 17 17 17 17 16 16 15 15 14 14 14 12 12 11 11 11 13 16 18 18 18 19 19 17 15 17 20 21 23 24 24 23
18 21 21 23 24 26 26 25 25 23 23 23 24 25 24 24 24 24 25 24 24 24 23 23 23 22 21 21 21 19 17 16 14 13 12 11 10 9 9 8 8 10 11 12 13 14 15 16 17 18 18 18 18 18 18 18 18 18 17 17 16 15 15 15 13 12 11 10 8 9 10 12 15 17 18 19 20 18 17 18 20 22 25 25 26
18 22 25 28 27 25 22 21 23 22 23 23 24 25 24 23 24 25 25 25 24 24 24 24 24 23 24 24 24 23 21 19 17 15 13 12 11 10 10 9 8 10 11 12 13 14 15 16 16 17 18 19 19 20 19 19 18 18 18 17 17 16 16 15 15 14 12 11 9 6 5 5 8 12 16 19 21 22 21 20 19 20 23 24 25
19 22 27 30 25 21 22 22 23 23 23 23 23 23 22 23 25 26 26 25 25 24 24 25 25 25 25 26 25 24 23 20 19 17 14 14 14 13 14 11 9 10 11 11 13 15 15 16 16 16 18 19 20 21 20 20 20 19 18 18 17 16 16 15 15 15 15 12 8 5 5 5 4 6 9 14 18 20 21 21 18 17 18 21 23
20 21 24 24 20 20 23 24 24 23 22 22 22 21 22 24 26 26 27 26 26 25 25 25 25 25 25 26 25 24 23 22 20 20 18 19 18 18 17 15 13 13 12 12 14 15 15 16 16 17 17 18 20 21 22 22 21 20 19 19 18 17 17 16 15 15 15 14 11 7 5 4 4 4 5 6 11 13 14 16 16 15 14 15 17
20 21 21 20 20 23 26 26 25 23 22 22 21 22 24 26 26 27 26 26 26 25 25 26 25 25 25 25 24 24 24 22 21 22 21 21 21 19 18 17 17 16 14 15 15 15 16 16 16 17 18 18 19 21 22 23 23 22 21 20 20 19 18 16 15 15 15 15 15 13 11 8 6 6 7 3 5 7 8 9 12 13 13 13 13
19 20 20 20 23 26 26 26 24 22 21 22 23 24 26 28 28 28 28 26 25 25 25 25 25 25 26 26 25 25 25 23 23 23 22 22 21 20 19 19 19 20 19 18 16 16 16 17 17 18 19 19 20 21 23 24 24 23 22 22 21 20 19 17 16 15 15 15 16 17 16 15 12 9 6 5 5 6 7 8 10 9 8 11 14
17 16 18 23 25 26 26 24 22 22 23 24 25 26 27 29 30 29 27 25 25 25 26 25 25 25 25 24 23 23 24 24 23 22 20 19 19 20 20 21 22 23 24 21 18 17 17 18 19 19 19 20 20 21 23 24 25 24 23 22 22 21 20 19 17 16 15 14 14 15 16 16 15 14 12 10 6 5 7 8 9 9 9 10 12
18 17 19 24 26 26 25 22 22 24 26 26 27 27 28 29 28 26 25 24 25 26 27 25 22 22 20 19 20 20 19 19 18 17 16 16 18 19 20 21 22 23 24 23 21 20 20 19 19 20 20 20 21 22 24 24 25 26 25 24 22 21 21 20 19 18 17 15 14 13 14 14 14 14 14 14 10 8 7 7 9 10 12 12 12
18 19 22 25 24 25 24 22 25 27 26 26 26 27 29 29 27 25 25 25 24 26 27 23 19 18 17 17 18 18 18 16 16 15 15 16 17 19 20 21 22 22 22 23 23 23 22 21 21 21 21 21 21 22 24 25 27 27 26 25 24 22 22 20 20 19 17 15 15 14 13 13 12 11 12 14 13 11 9 7 10 11 10 11 12
16 20 23 23 23 24 24 24 27 28 26 24 25 27 29 28 26 25 25 25 23 24 27 24 21 19 18 18 17 17 17 16 16 16 16 17 18 19 20 20 21 22 23 24 25 25 24 24 23 23 22 22 22 22 22 24 25 27 26 25 25 24 23 21 20 18 15 14 14 15 15 14 12 11 12 14 12 11 9 8 10 13 13 14 14
15 17 20 21 22 24 25 26 28 28 24 24 26 28 28 27 25 25 25 24 22 23 24 23 22 20 19 18 17 17 17 16 16 17 18 18 19 20 21 22 22 23 24 26 27 26 25 25 25 24 23 22 22 22 22 21 20 21 24 26 25 24 25 24 21 17 15 14 13 14 15 15 15 14 13 14 13 12 10 7 9 13 12 14 16
15 15 17 19 21 25 27 28 27 25 24 25 28 28 27 25 23 24 24 23 23 23 22 21 21 20 19 18 18 18 17 17 18 18 19 19 21 22 23 24 25 26 26 27 28 27 25 25 24 23 23 22 21 20 21 20 17 16 18 22 25 24 23 24 21 16 14 14 14 14 14 15 16 16 15 15 15 15 13 8 9 12 10 10 13
14 14 16 19 22 26 28 25 24 24 25 28 28 26 25 23 23 24 23 23 22 22 21 21 20 20 19 19 19 20 19 19 20 20 21 21 23 24 25 26 26 26 27 26 26 26 25 24 23 23 22 21 20 19 18 18 17 15 15 17 20 22 21 21 20 16 14 14 14 13 13 13 14 14 15 16 15 15 15 11 10 11 11 12 12
13 14 17 21 25 27 25 23 24 25 27 27 26 24 24 24 24 24 23 23 22 22 22 22 21 21 21 21 21 21 20 21 21 21 22 23 24 25 25 25 25 24 24 23 23 23 23 23 22 22 21 21 20 20 18 17 17 16 16 16 16 18 20 21 20 18 15 14 14 13 13 13 13 13 14 15 15 15 16 15 12 9 9 10 9
14 14 17 22 26 25 23 23 25 26 27 26 24 24 25 25 24 24 23 23 23 23 23 22 22 21 21 21 20 20 20 20 20 21 22 22 23 23 23 23 22 22 22 22 21 21 20 19 19 20 20 21 21 20 18 18 16 16 16 17 17 17 18 19 20 19 17 15 14 15 15 15 14 14 14 14 15 16 15 16 16 12 9 7 7
15 16 18 23 25 24 22 24 26 26 26 24 24 25 25 24 24 23 23 22 22 23 22 22 21 21 20 19 19 19 20 20 20 21 21 21 21 21 21 21 21 22 22 21 21 20 20 20 19 19 19 19 19 19 18 18 18 17 16 17 18 17 18 19 20 20 20 18 16 16 16 16 16 15 16 15 16 17 17 17 17 16 13 8 6
17 18 21 23 24 23 23 24 26 27 24 24 25 25 24 23 23 23 23 23 23 22 22 22 21 21 20 19 19 20 20 20 21 21 21 21 21 21 21 22 22 22 22 22 22 21 21 21 21 20 20 19 19 20 20 19 20 20 19 18 19 18 19 19 20 20 21 20 19 18 18 17 16 15 16 16 16 17 18 17 17 18 17 13 10
16 17 19 23 23 22 23 24 25 25 23 23 24 24 24 23 22 22 22 22 22 22 22 22 21 20 19 20 21 21 21 22 22 22 21 21 22 22 22 23 23 22 22 22 22 22 22 22 22 21 21 22 22 22 22 21 21 22 21 20 19 19 20 21 21 21 21 21 21 22 21 18 16 16 16 16 17 17 17 18 18 18 19 18 16
15 15 18 22 23 22 23 24 24 23 22 23 24 25 24 23 22 22 22 22 22 22 22 21 21 20 20 21 22 22 22 22 22 22 22 22 23 23 23 23 23 23 22 22 22 23 23 23 23 24 23 24 24 23 23 23 24 24 23 21 21 20 20 21 21 22 22 21 22 23 24 21 17 17 18 18 18 18 18 18 18 19 20 19 20
16 15 19 23 23 23 23 23 23 22 21 22 23 23 23 22 22 23 22 22 22 22 22 21 21 21 21 22 22 22 22 22 22 22 23 23 23 23 23 23 23 23 23 23 23 23 23 23 24 24 24 24 24 24 23 23 24 25 24 23 23 22 23 22 22 23 23 22 22 22 23 22 19 18 19 19 18 18 17 18 19 19 20 20 20
16 16 22 23 22 24 23 20 21 21 21 22 23 22 22 23 22 22 22 22 22 22 22 22 21 21 22 22 22 22 22 22 23 23 23 22 22 22 23 23 24 24 23 24 24 23 23 23 23 23 23 23 23 23 23 22 23 24 23 23 23 22 24 24 24 24 24 23 22 22 22 21 20 20 20 20 18 17 17 18 19 19 20 21 21
16 18 23 23 22 24 22 19 19 20 20 22 23 22 22 22 22 22 22 22 23 23 22 22 22 22 23 23 23 22 22 23 23 23 23 23 23 23 23 23 24 24 23 23 23 23 23 23 23 23 23 23 23 22 22 22 22 22 22 22 22 22 22 24 25 25 24 24 23 24 23 22 21 20 21 20 19 18 18 18 20 20 21 22 23
17 19 22 22 22 22 20 18 18 19 20 21 22 22 22 22 22 22 23 23 23 22 22 22 23 23 23 23 23 23 23 23 23 23 23 24 24 23 23 23 24 24 23 23 23 23 23 24 23 23 23 23 22 22 22 21 22 22 22 22 21 22 22 23 24 25 24 24 24 24 23 22 21 21 21 20 19 19 19 19 21 21 22 23 23
17 18 20 21 22 21 19 18 18 18 20 22 22 22 22 22 22 22 23 23 23 22 23 23 23 24 24 23 23 23 23 23 23 23 23 24 24 23 23 23 23 24 23 23 23 23 22 23 23 23 23 23 22 22 22 22 23 22 22 22 22 22 23 23 24 25 25 25 25 24 23 23 23 23 22 22 21 20 20 20 20 21 21 22 23
17 17 17 19 21 20 19 19 18 18 20 21 21 22 23 23 22 22 22 23 23 23 23 24 24 24 24 24 24 24 24 24 24 23 23 24 24 24 24 24 23 24 24 23 23 22 22 23 23 23 23 24 23 24 24 24 24 23 23 22 22 22 22 22 22 23 23 23 24 24 24 25 26 26 24 22 20 19 20 21 21 20 20 22 23
15 16 17 19 21 20 19 18 18 19 19 20 21 22 23 23 23 23 22 22 23 23 24 24 24 24 24 24 24 24 24 24 24 24 24 24 24 24 24 24 24 24 24 24 23 23 23 23 23 23 23 24 24 24 24 24 24 24 24 23 22 21 22 21 21 20 20 20 20 20 19 19 21 22 20 17 15 15 16 17 20 21 20 21 22
14 15 17 18 19 20 20 20 20 20 20 20 21 21 22 22 23 23 23 23 23 23 25 24 24 24 25 25 25 25 25 24 24 24 25 25 25 24 24 24 23 23 23 24 23 23 23 23 23 23 23 23 23 24 24 24 24 23 24 24 23 22 22 23 23 23 23 22 22 22 21 19 17 15 15 15 16 17 16 15 18 19 21 23 23
16 17 17 17 18 19 20 21 22 21 21 21 20 20 21 22 22 23 23 23 23 24 24 24 24 24 25 25 26 26 26 25 25 25 25 25 25 24 24 24 23 22 22 22 22 22 22 22 23 23 23 23 24 24 24 23 23 24 24 24 24 24 24 24 24 24 25 26 25 25 25 25 22 18 17 18 19 19 19 18 19 19 20 22 23
15 16 16 17 19 20 20 21 22 21 21 21 20 20 21 22 22 23 23 23 23 24 24 24 24 25 25 26 26 26 26 26 26 26 25 26 25 24 24 24 24 24 23 23 23 22 22 22 22 22 23 23 23 23 24 24 24 24 24 24 24 24 24 24 24 25 26 27 29 28 28 27 27 25 24 23 23 24 25 25 23 22 22 21 22
12 13 15 17 19 20 20 20 21 21 21 20 19 21 21 21 22 23 23 23 23 24 24 24 25 25 25 26 26 26 27 27 27 26 26 27 26 25 25 26 26 25 25 23 22 22 22 22 22 22 22 22 22 22 23 25 25 25 25 24 23 23 24 24 24 25 26 26 28 30 31 30 30 31 30 29 28 28 29 28 26 26 26 26 25
12 13 15 18 19 19 20 20 21 20 20 20 20 21 21 21 22 23 23 23 23 23 24 24 25 25 25 25 26 26 27 28 27 26 27 27 27 26 26 27 26 26 25 23 23 23 24 24 23 24 24 23 24 24 24 25 26 26 25 24 23 23 24 25 25 24 24 24 25 27 30 32 33 33 33 32 32 31 30 29 28 29 30 31 31
12 12 15 18 19 20 21 21 20 20 20 21 21 21 22 22 23 23 23 22 22 23 24 24 24 25 25 25 25 26 27 28 28 27 27 28 28 28 28 27 27 26 25 24 25 25 25 24 24 25 25 26 26 25 24 25 26 26 25 25 24 24 24 26 26 25 23 22 23 23 25 28 31 32 32 32 32 32 31 30 29 29 30 31 33
11 11 15 20 21 21 21 21 20 20 20 21 20 20 21 22 22 23 22 22 22 23 23 24 24 24 25 25 25 26 27 29 29 28 27 28 29 30 29 29 28 26 24 25 25 25 24 24 23 24 25 26 27 25 23 23 25 25 24 24 25 26 25 26 28 29 28 26 25 23 23 24 26 29 31 30 30 30 29 28 27 27 28 29 31
10 11 15 20 21 21 21 21 20 20 20 20 20 20 21 22 22 22 21 21 22 22 23 23 23 24 25 25 26 26 27 28 29 28 27 28 29 29 30 29 27 24 24 23 23 25 25 24 23 22 23 25 25 23 21 21 23 22 22 22 24 25 25 25 27 30 32 33 31 26 23 23 23 24 27 28 29 30 29 29 27 26 26 27 27
11 12 16 20 21 20 20 21 20 20 20 20 20 21 22 22 22 21 20 20 21 22 22 22 23 24 25 25 26 27 27 28 28 28 27 28 28 28 29 28 26 25 24 23 24 26 26 25 22 20 21 24 25 22 19 19 19 19 18 19 21 23 25 28 30 30 31 33 33 31 28 26 24 23 24 25 27 28 28 29 29 28 27 26 26
13 13 15 18 20 19 20 20 20 20 20 19 20 21 22 23 21 20 20 20 20 20 21 22 24 24 25 26 26 27 28 28 28 28 27 27 28 28 28 27 25 26 25 24 25 26 24 22 22 20 20 23 25 22 17 16 16 16 16 16 18 19 21 25 29 31 31 32 33 33 33 30 28 26 25 25 26 27 28 28 27 27 26 25 25
13 14 15 17 19 19 19 20 20 20 19 19 20 21 22 22 21 20 20 20 19 20 21 22 24 24 26 26 26 27 27 27 28 28 27 28 28 28 27 26 25 26 26 25 25 24 23 22 21 20 20 22 23 21 17 15 15 14 13 14 14 15 16 17 20 24 28 31 32 32 32 31 31 31 28 26 25 27 28 28 27 26 24 24 25
11 13 15 16 18 19 19 19 19 20 20 19 20 20 20 20 20 20 20 20 20 20 21 23 24 25 26 26 26 26 27 27 28 28 28 29 28 27 26 26 25 25 25 25 23 23 25 26 24 21 20 20 19 18 15 12 12 12 11 10 10 11 13 15 15 16 19 24 28 29 28 29 31 32 30 26 25 26 28 29 28 26 25 24 24
12 13 14 15 17 19 19 18 19 20 20 19 19 18 18 19 19 20 20 20 21 22 23 23 24 25 25 26 26 26 26 26 28 28 29 29 27 26 25 26 26 25 23 23 24 25 26 27 25 22 20 17 14 12 12 11 11 11 10 9 9 11 13 14 15 15 14 15 19 23 25 26 27 29 29 27 26 26 27 28 28 27 25 24 23
12 12 13 14 15 17 17 17 18 19 20 19 18 18 18 18 18 19 19 20 21 23 23 23 24 25 26 25 26 26 26 27 27 27 27 27 25 25 25 26 26 24 23 24 26 25 23 23 22 21 19 16 14 11 10 13 14 14 14 12 8 9 11 12 13 14 14 14 14 16 20 21 22 24 26 27 27 27 26 26 28 28 27 25 24
11 11 13 14 14 16 17 17 17 18 18 18 18 18 18 18 17 18 20 21 21 22 22 23 24 25 26 26 26 26 26 26 26 25 25 26 26 25 25 24 24 24 24 25 23 21 20 20 20 19 17 17 18 14 12 15 18 17 17 16 13 12 13 13 13 12 13 14 14 14 16 17 18 19 22 24 26 27 27 26 26 27 27 27 26
10 11 13 15 15 16 17 17 17 18 17 17 18 19 18 17 18 19 20 20 20 21 22 23 24 25 26 26 25 25 25 24 24 24 24 25 25 24 23 22 22 23 23 22 20 20 20 19 19 18 17 17 18 17 15 16 18 18 18 18 15 15 15 14 13 13 13 14 14 15 15 16 17 18 19 21 22 24 27 27 26 25 26 26 25
9 10 12 14 15 17 18 18 17 17 17 17 18 18 18 18 19 19 19 19 20 21 22 23 24 25 26 26 24 23 23 22 22 23 23 23 23 23 22 20 21 21 20 18 19 20 19 18 18 18 18 17 17 16 16 16 18 19 19 19 17 16 16 15 14 14 14 13 13 14 14 15 16 17 18 19 19 21 24 26 25 25 26 25 24
9 10 12 13 15 17 18 18 17 17 17 17 16 16 19 20 19 18 19 19 20 22 22 23 24 24 25 25 25 22 20 20 21 21 21 21 21 21 20 19 19 19 17 17 19 19 18 18 18 17 18 18 17 16 16 17 20 21 20 19 19 17 17 16 15 15 14 14 14 15 15 15 16 17 18 18 18 19 21 23 24 24 24 24 23
9 10 10 12 14 16 17 17 17 17 16 16 15 15 18 19 18 18 19 20 21 23 24 23 23 23 23 23 23 20 19 19 20 19 18 18 18 19 19 18 18 17 17 18 19 18 17 18 18 17 18 18 17 16 17 18 20 21 20 20 19 18 17 16 15 14 13 14 14 14 15 15 15 15 16 17 18 18 18 20 23 23 23 23 22
9 10 10 11 14 15 15 16 18 17 15 15 14 14 16 18 19 19 20 21 22 24 25 25 24 22 21 20 19 19 20 20 19 18 17 16 16 17 17 17 18 18 18 18 18 17 17 17 18 18 17 17 17 16 17 19 21 21 21 20 18 17 17 16 15 14 13 14 14 14 14 14 13 13 14 15 14 13 13 15 19 22 22 22 22
9 9 9 10 12 14 15 16 17 16 15 15 14 14 15 17 19 19 20 21 22 23 25 26 25 22 19 18 18 18 19 20 19 18 17 16 16 17 16 16 17 18 18 19 18 17 16 18 18 18 17 17 17 16 17 21 23 22 21 19 17 17 17 16 15 15 15 15 13 12 11 10 9 9 11 11 11 9 10 12 16 20 20 20 21
9 9 9 9 12 14 14 16 16 15 14 15 14 14 16 17 18 19 19 21 22 23 24 24 23 20 18 17 17 17 17 18 19 19 18 16 16 16 17 17 17 17 18 20 19 17 16 19 18 16 16 17 17 17 20 22 23 22 21 19 16 16 16 16 16 15 14 12 9 7 7 7 8 7 7 8 9 10 10 10 14 18 20 19 20
9 9 9 10 12 13 13 15 15 14 14 14 15 16 17 17 17 18 18 20 22 23 23 22 20 19 18 17 17 17 16 17 17 18 20 20 18 16 15 16 17 18 18 19 18 17 18 20 19 17 17 18 18 19 22 23 22 22 21 18 16 16 17 16 14 12 9 7 7 6 7 8 9 9 7 7 6 4 6 6 9 14 16 16 18
10 10 10 11 12 12 12 14 14 13 13 15 16 18 18 17 18 18 18 19 21 22 22 21 20 19 19 18 17 16 16 16 16 16 18 20 21 20 17 16 17 19 20 19 17 16 18 20 20 19 20 20 19 21 22 22 22 22 21 17 15 16 17 15 11 7 7 7 8 8 7 8 9 9 9 10 11 9 7 5 3 2 5 6 7
Wind_Direction
333 324 321 321 319 320 320 318 316 315 316 316 318 318 316 316 314 313 313 310 308 305 302 299 298 299 298 295 299 301 299 296 292 287 284 286 290 294 305 312 317 326 329 329 327 323 316 309 303 299 295 291 287 286 284 282 280 279 279 275 271 268 264 261 260 262 265 268 270 265 261 262 260 258 258 254 247 248 259 261 257 252 249 248 246
330 326 323 320 318 319 318 320 322 324 324 323 321 319 317 316 315 314 313 311 307 304 301 298 294 293 294 293 294 295 295 294 290 286 281 280 281 282 293 303 310 321 326 326 325 323 319 313 305 298 293 288 285 283 281 279 277 273 272 271 267 263 259 256 254 254 256 258 265 267 264 261 254 251 253 251 244 241 246 253 258 256 252 250 249
328 326 325 322 320 322 327 333 334 332 328 324 322 321 322 322 321 320 318 314 310 306 303 299 293 288 288 290 290 290 291 292 291 287 279 275 274 277 289 293 299 314 319 321 322 320 317 313 307 300 294 289 284 281 278 275 273 269 266 265 265 262 258 254 248 247 251 255 263 264 266 272 252 237 237 244 245 241 239 241 247 254 255 254 253
325 326 326 325 328 338 344 341 335 332 328 327 328 330 331 331 331 328 324 319 314 310 306 303 297 289 286 286 284 283 284 284 284 282 276 275 277 282 290 289 294 307 311 315 318 317 314 311 306 301 295 290 285 281 277 273 270 267 264 260 261 260 259 256 248 243 244 248 257 257 258 273 260 226 225 237 239 235 234 234 234 242 252 255 255
326 328 328 331 341 346 341 335 332 333 333 334 337 337 336 335 333 331 327 324 320 316 313 309 304 296 289 286 282 279 278 278 279 281 282 284 284 285 288 291 297 302 303 308 312 313 312 308 304 301 296 291 286 280 275 272 269 266 263 258 255 255 256 256 251 243 238 238 245 250 255 256 253 293 308 240 215 218 227 231 230 230 238 248 253
329 329 329 334 340 335 331 332 332 333 335 338 339 337 335 332 329 326 323 322 322 322 322 319 312 304 297 291 285 280 279 280 280 283 286 285 283 283 286 291 298 301 302 303 304 307 309 307 303 300 297 291 286 281 275 271 268 264 260 257 254 252 252 253 250 245 240 238 239 243 255 270 286 321 329 275 208 216 224 230 234 235 237 239 242
331 329 330 334 333 330 330 332 332 333 337 338 335 331 328 327 324 319 314 312 313 315 318 321 317 310 304 298 290 282 280 281 282 282 285 284 282 282 284 288 294 298 301 302 300 301 305 306 301 298 296 291 285 280 275 270 266 262 258 255 253 250 248 246 244 241 240 239 237 239 248 259 268 281 287 277 276 257 242 245 238 232 243 243 241
331 327 330 333 331 330 331 333 334 334 334 334 333 332 331 328 324 318 314 313 314 313 312 313 313 311 308 306 304 296 287 285 287 288 288 287 285 285 287 289 291 292 295 297 299 300 302 304 300 295 294 292 286 279 275 270 264 260 258 256 252 248 245 243 241 236 235 237 235 237 241 244 247 252 255 260 276 277 269 270 253 240 251 250 248
330 324 328 333 333 333 335 336 337 333 329 329 332 335 335 330 324 323 324 325 324 321 315 309 309 312 312 320 330 329 317 308 305 303 300 296 292 290 291 291 291 290 290 291 295 298 299 302 299 292 290 291 288 282 275 269 265 261 257 255 251 245 242 241 239 234 232 235 234 235 239 240 239 242 246 246 248 258 265 271 267 264 258 244 237
327 321 327 332 332 334 334 333 333 331 327 326 328 331 333 330 325 327 331 329 328 331 332 329 327 326 326 332 338 339 337 332 325 317 312 306 300 297 295 293 292 291 289 289 292 294 295 298 295 289 285 286 286 283 278 270 264 260 256 253 248 239 238 239 237 233 232 234 233 234 234 234 235 238 239 239 240 246 251 256 262 265 265 252 235
326 325 331 332 332 336 333 328 329 328 326 327 329 330 330 328 326 327 328 326 324 333 341 342 340 337 337 338 337 334 333 330 323 316 312 307 302 298 296 294 292 291 290 289 291 291 291 291 290 284 280 279 280 280 280 278 268 260 254 250 244 239 238 239 237 230 226 231 232 232 234 231 230 233 233 235 236 239 244 249 252 251 256 261 259
329 330 332 332 335 337 333 329 329 330 328 329 329 329 329 327 326 326 327 326 325 328 333 332 332 331 331 332 330 328 326 321 315 309 305 302 298 297 296 295 293 291 290 289 290 290 289 288 284 279 275 274 274 271 272 281 284 271 256 244 238 239 240 240 238 226 216 224 229 229 234 235 234 235 236 239 243 250 253 251 251 251 249 252 257
333 333 333 334 335 335 333 331 332 334 332 330 330 330 330 329 328 327 327 328 327 326 325 325 326 326 325 327 326 324 321 316 312 306 303 301 298 297 296 294 293 291 289 288 288 287 286 286 283 278 273 268 269 271 270 277 290 293 274 250 237 237 239 238 236 227 215 218 224 227 231 234 236 236 236 239 244 254 262 265 267 265 260 261 263
333 335 333 331 332 334 335 335 336 336 333 331 331 331 332 331 330 328 327 330 331 329 328 326 325 324 323 324 322 319 314 310 307 303 301 299 297 295 294 293 291 290 288 287 286 286 284 284 282 278 271 264 266 271 273 278 286 294 293 273 250 240 239 240 239 234 226 221 222 226 229 233 237 238 237 239 238 243 250 255 265 268 263 264 267
335 337 333 332 333 334 335 336 337 335 334 333 331 331 333 331 329 327 326 328 330 330 329 325 323 321 319 318 315 312 310 307 305 301 299 298 297 295 293 291 290 289 289 288 288 287 284 282 280 275 269 266 268 269 268 274 283 288 289 286 272 254 245 245 244 240 233 225 223 227 231 234 237 240 241 242 241 239 242 247 252 261 262 260 261
335 336 334 335 336 334 333 336 335 334 335 336 333 332 332 330 329 328 325 325 327 328 327 325 323 321 318 317 315 314 313 311 307 303 302 300 298 296 293 291 290 289 289 289 288 286 284 282 282 278 272 268 267 267 264 264 274 282 281 279 280 270 258 252 250 246 241 234 229 229 233 236 236 239 243 244 246 244 243 244 245 247 254 259 259
335 337 336 335 335 334 333 335 334 335 336 335 333 333 331 329 329 328 326 326 327 327 327 326 325 323 321 320 319 318 316 312 309 306 304 302 299 296 293 291 291 290 290 290 288 285 283 282 282 280 277 274 270 268 267 264 267 274 275 272 272 271 265 258 253 250 248 245 241 233 232 236 236 236 239 242 245 247 246 244 242 243 246 253 258
337 339 336 335 336 336 335 335 334 336 335 330 330 332 332 329 327 327 327 327 327 328 326 325 324 322 321 320 319 318 315 311 309 307 304 301 299 296 294 292 291 291 290 288 286 284 281 280 279 276 274 273 271 270 270 268 266 267 269 268 265 264 263 259 254 252 252 250 248 242 236 235 234 232 234 238 241 244 245 245 243 241 242 246 253
341 339 336 337 338 337 336 334 333 333 332 329 329 331 333 330 326 325 326 326 327 327 325 324 324 322 320 319 318 316 315 312 309 307 305 301 299 297 294 293 292 291 290 288 285 282 280 278 276 274 272 270 269 268 268 268 265 263 264 265 261 257 256 255 252 251 252 251 250 248 244 237 234 233 235 238 240 242 243 245 245 242 241 242 246
343 339 337 338 338 337 334 334 335 332 327 329 331 332 333 331 327 326 326 325 326 327 326 324 323 322 320 319 318 316 314 312 309 308 306 302 300 298 295 293 292 290 289 288 286 282 280 278 275 274 272 270 268 266 264 263 262 260 262 262 259 256 254 253 251 249 250 250 249 249 247 241 235 234 237 239 240 241 241 242 245 245 242 240 240
344 340 336 339 338 333 331 332 335 330 326 330 331 330 330 329 327 327 325 325 326 326 326 325 323 322 321 320 319 317 315 313 310 308 305 303 301 299 297 295 293 291 289 287 286 283 280 279 277 274 272 270 268 266 263 261 259 258 259 259 257 254 253 253 252 250 249 248 247 247 246 243 237 235 238 239 239 240 239 239 242 244 244 241 237
345 339 336 340 336 328 329 335 334 327 326 331 332 331 330 327 327 327 325 324 325 324 324 324 322 320 320 319 318 317 316 313 311 309 306 305 303 301 300 298 294 292 290 287 285 283 281 279 276 274 272 270 268 266 265 262 260 259 259 258 256 253 251 250 250 250 249 248 249 248 246 242 238 235 235 236 238 240 239 239 240 240 242 241 238
340 338 337 338 332 327 332 339 334 326 326 330 330 330 328 326 326 325 323 323 323 322 321 321 320 319 319 318 317 317 315 313 311 309 307 305 304 303 301 298 296 293 290 287 284 282 280 278 276 275 272 270 267 265 263 260 259 259 258 258 257 254 251 249 247 248 248 248 249 248 246 242 238 235 233 234 235 237 239 241 241 241 241 241 239
334 339 338 333 328 328 333 336 331 327 328 330 329 327 325 326 325 324 323 323 322 321 321 320 319 318 318 317 317 316 314 313 311 308 307 306 304 303 302 299 297 294 291 288 286 283 280 277 275 273 271 269 267 264 262 259 257 258 258 259 258 256 253 250 249 249 249 249 249 248 246 242 239 236 234 234 234 235 237 239 240 240 241 243 241
335 341 337 330 329 331 332 330 328 326 326 329 330 326 325 325 324 324 323 322 321 321 320 319 318 317 317 316 317 316 314 312 310 308 306 306 305 303 301 299 297 295 293 290 286 283 280 278 274 272 270 268 266 264 262 260 259 258 258 258 257 256 254 252 252 251 250 249 250 250 248 245 240 237 236 236 234 232 233 235 238 239 240 242 244
336 340 334 330 330 330 328 327 327 325 323 326 327 325 325 324 323 324 322 320 321 320 319 318 317 316 316 316 317 316 314 312 309 308 306 305 304 302 301 299 297 295 293 290 287 283 280 277 274 272 269 267 265 263 261 260 259 257 256 256 257 253 250 249 250 251 251 251 249 249 250 247 239 233 231 231 231 229 229 231 235 238 240 242 244
334 336 333 331 328 328 329 327 326 325 322 323 325 324 325 324 323 324 323 320 320 320 318 317 316 316 316 316 317 315 313 311 309 308 306 304 303 301 300 299 296 294 292 289 287 283 280 277 274 271 268 266 264 262 260 258 256 254 252 252 254 251 248 248 250 253 255 254 252 252 253 251 242 233 229 228 234 240 240 238 238 238 240 245 246
335 336 332 328 326 328 329 325 325 329 325 321 323 323 323 323 323 323 322 321 320 319 318 316 315 316 316 316 316 314 312 310 308 307 306 304 303 301 300 298 295 292 289 288 286 283 280 277 274 271 268 265 263 260 259 256 254 253 249 247 248 248 247 248 249 252 254 254 256 256 258 259 254 246 241 239 245 253 257 259 255 246 240 242 245
335 336 328 324 326 327 325 322 326 330 326 321 321 322 322 323 322 322 322 320 320 319 317 316 315 315 315 315 314 313 311 309 308 307 306 304 303 302 299 297 294 290 287 285 283 280 278 275 273 270 267 264 262 259 257 254 251 250 248 245 245 245 246 247 247 249 250 252 255 256 257 259 257 255 252 248 249 254 258 260 262 260 251 244 243
331 333 327 324 325 324 321 321 324 325 322 319 320 321 322 321 320 321 321 320 319 318 316 315 315 315 314 314 313 312 310 309 308 307 306 304 304 302 300 297 294 290 287 284 282 279 276 273 272 270 267 263 260 257 255 252 250 247 244 243 243 244 246 247 249 250 250 250 252 254 256 256 257 257 255 252 253 255 258 257 255 258 260 257 253
323 328 327 324 323 322 320 321 322 320 318 318 318 319 320 319 319 321 320 319 319 317 315 315 314 314 314 313 313 312 311 310 309 307 306 305 304 302 300 298 295 293 289 285 282 279 275 272 271 269 266 263 260 256 255 254 252 250 246 242 241 242 243 245 249 252 252 251 250 251 253 252 253 253 253 254 254 254 255 255 254 254 257 260 262
319 323 327 325 323 321 321 321 320 317 316 317 318 319 318 318 319 320 319 318 318 317 316 315 313 313 313 313 313 313 311 309 309 308 308 307 304 302 301 299 296 295 292 287 284 283 281 278 275 271 267 263 261 259 258 257 256 254 251 247 242 239 238 240 243 247 250 251 251 249 248 247 246 247 248 250 251 250 252 255 257 258 258 258 260
315 318 324 326 324 321 320 319 317 315 315 317 317 316 316 317 318 318 317 316 317 317 316 314 313 313 313 313 313 312 311 310 309 310 309 308 306 303 302 301 299 297 294 292 292 291 288 286 282 278 275 272 271 268 263 259 259 257 253 250 246 242 239 237 237 239 240 242 246 249 248 245 242 242 242 244 244 247 252 254 254 255 257 259 259
311 313 318 323 324 320 317 317 315 315 315 315 315 314 314 315 315 316 316 315 315 316 315 313 314 314 313 314 314 311 310 309 309 310 310 307 305 304 304 304 302 300 297 296 298 298 295 292 288 285 283 282 283 282 273 263 260 259 255 252 249 247 245 242 240 241 241 239 239 242 246 247 243 239 238 238 238 240 245 249 251 252 254 257 259
311 312 315 320 321 318 316 316 316 316 315 315 314 314 313 314 315 314 313 314 314 314 313 313 313 313 314 314 314 312 311 309 308 309 309 307 305 304 306 307 305 301 298 297 298 302 302 300 295 291 288 287 292 295 286 271 264 262 258 255 251 247 245 245 245 245 246 245 242 238 239 244 244 241 236 234 233 235 239 243 247 250 254 257 258
312 312 313 318 320 317 314 314 315 315 315 313 313 314 314 314 314 312 312 313 314 313 313 314 314 314 314 314 314 312 311 309 308 308 308 307 306 305 308 309 307 304 300 297 300 305 306 305 302 296 290 292 301 306 296 280 272 269 264 258 252 248 244 244 246 247 247 248 246 240 238 239 240 241 238 233 231 231 234 238 242 247 253 257 259
312 311 309 314 318 315 313 315 315 312 312 313 313 314 313 311 311 311 311 312 313 313 314 315 315 315 315 314 314 312 310 309 308 308 307 307 306 306 307 309 307 305 303 302 304 307 307 304 301 297 292 295 307 317 312 295 284 277 273 266 256 251 248 246 248 250 249 250 250 246 243 240 237 238 239 235 232 230 229 232 236 241 248 253 257
312 310 307 312 317 316 314 314 312 310 311 312 313 313 311 308 308 309 311 312 312 312 314 315 314 314 314 314 313 311 310 309 307 307 306 306 306 305 306 308 306 304 303 303 304 306 307 306 302 297 294 295 304 320 324 308 294 287 282 277 266 259 259 257 255 253 250 250 253 253 248 241 240 243 241 235 232 230 229 229 232 236 242 247 252
309 305 306 312 317 317 316 314 311 311 312 312 311 310 308 306 308 310 310 311 312 314 315 314 313 313 313 313 312 311 309 308 306 305 305 306 305 304 305 306 305 303 302 303 303 303 307 313 314 308 302 298 304 324 338 321 303 297 287 276 268 264 267 270 271 268 259 251 251 253 250 244 244 248 245 236 232 230 228 228 229 231 236 241 246
304 302 305 311 316 316 314 312 312 313 312 311 309 307 305 305 307 309 309 310 313 314 314 312 312 313 313 312 312 311 309 307 305 305 305 306 306 304 305 305 305 304 303 304 306 305 306 312 318 315 313 313 315 329 345 340 327 320 308 289 269 261 263 268 271 273 272 263 251 249 250 246 243 245 242 236 234 232 228 228 227 227 230 235 240
299 301 304 308 312 313 309 307 310 311 310 309 307 305 304 304 304 305 307 310 313 313 313 312 312 312 312 312 312 310 308 307 305 305 306 306 306 306 306 305 305 304 303 303 307 310 310 314 320 321 326 338 341 335 340 350 352 348 343 340 321 294 291 291 284 273 268 269 262 253 251 248 244 243 241 237 236 235 231 230 227 225 228 233 238
297 298 303 310 313 310 306 306 310 311 309 308 306 303 302 302 301 302 305 309 311 311 312 312 312 311 311 311 311 310 309 308 307 307 307 307 308 308 307 306 307 307 307 307 310 317 321 323 327 329 335 346 350 349 353 358 357 351 346 346 341 328 323 319 310 294 275 267 266 264 259 254 248 245 241 239 240 238 233 231 230 228 229 232 237
295 294 302 313 314 308 305 306 310 310 309 308 306 302 300 300 300 303 307 309 309 310 311 311 311 310 310 310 310 310 310 309 307 308 308 308 309 310 309 311 313 312 313 317 323 327 327 327 330 334 338 342 347 350 352 352 349 346 343 341 336 330 326 320 311 305 295 281 275 273 268 262 257 253 247 245 247 243 236 233 231 229 229 230 237
292 290 297 308 308 304 303 304 306 308 309 308 304 300 299 299 300 305 310 309 309 310 310 310 309 310 310 309 309 309 310 310 309 311 311 309 310 313 314 316 316 314 317 326 329 328 329 330 331 332 335 338 340 341 343 344 342 340 338 335 332 329 327 321 311 302 298 294 288 284 279 272 265 260 255 253 253 249 241 235 231 228 228 229 233
286 287 295 303 303 299 299 300 302 304 306 305 302 299 298 299 303 308 310 309 310 310 309 308 308 309 309 309 309 309 309 309 311 312 312 312 313 316 318 319 318 318 323 329 328 327 329 331 331 331 331 333 335 336 338 340 339 337 335 331 328 326 324 321 314 304 297 294 293 292 291 286 274 262 257 257 258 255 248 240 232 226 225 225 226
282 286 293 301 300 296 295 297 299 302 304 302 299 297 298 300 306 311 311 311 311 310 309 308 309 310 311 310 311 311 310 311 313 314 313 313 315 317 319 320 321 324 328 327 326 329 332 331 331 332 329 329 331 335 337 338 336 335 332 328 325 323 323 322 317 309 302 298 295 293 293 293 284 267 254 249 252 256 254 244 231 222 220 221 220
281 284 291 299 299 295 294 296 298 302 304 300 296 296 297 301 307 310 312 313 312 312 311 310 310 312 313 313 313 314 314 314 316 317 317 317 318 318 318 319 320 322 324 325 327 332 334 333 332 331 330 330 331 333 336 338 337 335 331 327 325 323 324 324 320 314 309 304 300 296 293 291 287 272 255 245 245 252 254 240 225 219 218 217 217
278 281 286 292 292 290 292 295 296 300 302 299 297 297 299 302 306 309 312 313 314 314 313 310 310 312 314 315 315 315 316 317 317 318 319 319 319 317 315 314 315 316 319 323 328 332 335 335 334 334 334 332 332 335 337 336 335 333 329 326 325 326 326 323 320 317 313 308 302 298 299 299 294 280 262 247 241 245 250 235 216 212 215 215 215
275 276 277 281 284 285 288 290 292 296 298 297 296 298 301 305 307 310 313 314 315 316 314 311 311 312 314 318 318 316 317 318 318 319 319 317 316 317 315 314 316 319 324 327 330 334 338 338 337 338 338 334 331 335 336 335 334 333 330 326 326 330 329 324 319 317 316 315 313 314 327 338 334 319 290 263 246 235 234 229 212 207 209 210 212
270 270 270 272 276 279 282 286 290 293 295 295 296 299 303 306 309 312 315 315 317 318 316 314 313 313 314 318 317 316 318 319 320 322 322 321 322 323 322 322 324 327 331 334 334 337 342 343 342 342 341 336 331 332 333 335 336 335 332 329 328 334 337 331 326 326 330 338 346 352 1 4 357 353 352 339 320 275 233 226 214 207 205 205 207
263 264 266 267 269 272 275 281 287 290 292 294 296 299 304 310 312 314 315 316 318 319 316 315 314 312 313 315 315 316 319 320 321 324 325 325 327 328 330 332 333 334 337 340 341 341 345 348 347 346 343 340 336 335 336 338 340 339 338 334 332 340 346 342 339 353 11 14 11 10 11 11 7 7 7 2 360 2 4 3 354 237 211 203 203
Height
878 877 876 874 872 869 867 864 863 860 859 858 857 856 855 853 852 850 849 848 847 846 845 844 842 841 840 839 838 837 835 834 833 832 832 831 831 830 829 828 827 826 825 824 823 822 820 819 818 817 816 815 813 812 811 810 809 808 807 806 804 803 802 801 801 801 800 799 798 797 796 795 795 796 796 796 798 798 798 799 799 800 801 802 804
876 874 872 870 867 865 863 861 860 858 857 857 856 854 853 851 850 848 847 846 845 844 842 841 840 839 838 837 836 835 834 833 831 830 830 829 828 828 827 826 825 824 824 823 822 820 819 818 817 816 815 814 812 811 810 809 809 808 807 805 804 802 801 800 800 799 798 797 796 795 794 793 793 793 793 793 794 795 796 796 796 797 798 799 801
874 871 869 866 864 862 861 860 860 859 857 857 855 853 852 850 848 847 846 844 843 842 840 839 838 838 837 835 834 833 832 831 830 829 828 827 827 826 825 824 823 822 822 821 820 819 818 817 816 815 814 813 811 810 809 808 807 806 806 804 803 801 799 799 798 798 797 796 796 794 793 792 791 790 790 790 791 791 792 793 794 794 795 797 798
872 870 868 865 863 862 862 862 861 860 858 856 855 853 852 850 849 848 846 844 842 840 839 837 835 835 834 833 832 831 829 829 828 826 825 824 824 824 824 823 822 820 820 820 819 818 817 816 814 813 813 812 811 809 807 806 805 804 804 803 802 800 798 797 797 797 797 796 795 793 792 791 790 788 787 787 787 788 789 791 792 793 793 795 796
872 869 868 865 864 864 864 863 862 860 859 857 856 855 853 852 851 849 847 845 842 840 838 836 833 831 830 829 829 828 826 825 824 823 822 821 821 821 821 822 821 819 818 818 817 817 816 815 813 812 811 810 809 807 806 805 803 802 801 801 800 799 798 797 796 796 796 796 795 793 791 791 790 787 786 786 785 787 788 789 790 791 792 793 794
873 870 868 866 865 865 864 863 862 861 860 859 858 857 855 854 852 851 849 846 844 841 839 836 833 830 828 826 825 824 823 822 822 821 820 819 818 819 819 820 820 819 818 816 815 815 814 813 812 811 809 809 807 806 804 803 802 800 799 799 798 798 797 796 795 795 795 795 795 794 792 791 790 790 791 789 786 786 787 788 788 789 791 792 792
873 870 867 866 866 865 863 862 862 862 861 861 860 858 857 855 853 851 849 846 844 841 839 837 834 831 828 825 823 822 820 820 820 819 818 817 817 817 817 817 817 817 817 816 814 813 812 811 810 809 808 807 806 804 803 801 800 798 797 797 796 796 796 795 794 795 794 794 794 793 792 792 792 793 793 792 789 787 786 787 787 787 788 790 790
872 869 867 867 867 865 864 863 863 863 862 862 861 859 858 856 854 851 848 845 843 841 838 836 834 831 828 825 822 820 818 818 818 817 817 817 816 816 816 815 815 815 815 815 813 811 810 809 808 807 806 805 804 802 800 799 798 797 796 795 794 794 794 793 793 793 793 792 792 792 792 792 792 793 793 793 792 790 788 787 786 786 787 788 789
872 869 866 867 868 866 865 865 865 865 864 863 862 861 859 857 854 851 848 845 843 841 837 835 833 831 828 826 823 821 819 818 817 817 817 816 816 815 815 814 813 813 812 812 811 810 808 807 805 805 804 803 802 800 798 797 796 794 793 793 793 793 792 792 791 791 791 790 790 790 791 791 791 792 792 793 793 792 790 788 787 787 787 787 787
872 868 866 867 868 868 867 867 867 866 865 864 862 861 860 857 854 850 849 846 844 841 837 834 832 831 828 826 824 822 820 819 818 818 817 817 816 815 814 813 812 811 810 809 808 808 806 805 803 802 801 800 799 798 796 795 793 792 791 791 790 791 791 790 790 789 789 788 789 789 789 789 789 790 790 791 791 791 790 789 788 787 786 785 785
871 868 866 868 869 869 869 868 867 866 865 864 863 861 860 857 854 851 850 847 844 842 839 836 834 832 829 827 825 824 822 821 820 819 818 817 816 815 813 812 811 809 808 807 806 806 804 802 801 800 799 798 797 796 794 792 790 789 788 788 788 788 788 789 788 788 787 787 787 787 787 787 787 787 788 789 789 789 788 788 788 788 786 785 784
871 869 868 869 869 870 870 868 867 866 864 864 863 861 859 857 854 851 849 847 844 842 839 837 835 832 830 828 826 824 823 821 820 819 818 817 815 814 812 810 809 808 806 805 804 803 802 800 798 796 795 794 793 793 791 789 787 785 784 784 785 785 786 787 787 785 784 785 785 785 785 785 785 786 786 787 787 787 787 786 785 785 784 783 783
872 871 870 870 871 871 869 868 867 865 865 864 862 861 858 856 854 851 849 846 844 841 839 836 834 832 830 828 826 824 823 821 820 819 817 816 814 812 811 809 807 806 804 803 802 801 800 797 795 793 792 791 791 790 788 787 785 783 782 781 782 782 783 784 784 783 782 782 783 783 783 784 783 784 784 785 786 786 786 785 784 784 783 781 781
874 872 872 871 871 871 870 869 867 866 865 864 862 860 858 856 853 851 848 846 844 841 838 836 834 832 830 828 826 824 823 821 819 818 816 814 813 811 809 807 805 803 802 800 799 798 797 795 793 791 789 788 788 787 786 785 784 782 781 780 780 781 781 782 782 781 780 780 781 781 781 781 781 782 782 783 784 785 785 785 785 784 782 781 780
875 874 874 873 872 871 871 870 869 867 866 863 862 860 858 856 853 851 848 845 843 841 838 836 833 832 829 827 826 824 822 820 818 816 814 813 811 809 807 805 803 801 800 798 797 796 794 792 791 789 788 787 786 785 784 783 783 782 780 779 779 779 779 779 780 779 778 778 778 779 779 780 780 780 781 781 781 782 783 784 784 784 782 781 779
875 875 874 874 873 872 871 871 870 867 865 863 862 859 857 855 852 850 848 845 843 840 838 835 833 831 828 826 824 822 820 818 816 815 813 811 809 807 805 803 802 800 798 797 795 794 792 790 789 788 786 786 784 784 783 782 782 781 780 779 778 778 777 777 777 776 776 776 776 777 777 777 778 778 779 779 780 780 781 782 783 783 782 781 779
875 874 874 874 873 873 872 871 869 866 865 864 861 859 857 854 852 849 847 844 842 840 837 835 832 830 827 825 823 821 819 817 815 813 812 810 808 806 804 802 800 798 796 795 793 792 791 789 788 786 785 784 783 782 781 781 780 779 779 778 777 776 776 775 775 775 774 775 775 775 775 775 775 776 776 777 778 778 779 779 780 781 781 780 779
875 874 875 874 873 873 872 871 869 866 866 864 860 858 856 854 851 849 846 844 841 839 836 834 831 829 826 824 822 820 818 816 814 812 810 808 806 804 802 800 798 796 794 793 791 790 789 788 786 785 784 783 782 781 780 779 779 778 777 777 776 775 774 773 773 773 772 772 772 772 772 772 772 773 774 774 775 776 776 777 777 778 779 779 778
874 874 874 873 872 873 872 870 868 867 865 863 859 856 854 853 851 848 846 843 840 838 835 833 830 828 825 823 821 819 816 814 812 810 808 806 804 802 800 798 796 794 792 791 789 788 787 785 784 783 782 781 780 779 778 777 777 776 775 775 774 773 772 771 770 770 770 770 770 770 770 770 770 770 771 771 772 773 774 774 775 775 776 776 777
872 874 873 872 872 873 872 869 867 866 864 861 858 856 853 851 849 847 845 842 840 837 834 832 829 827 824 822 820 817 815 813 810 808 806 804 802 799 797 796 794 792 790 788 787 785 784 783 782 781 780 779 778 777 776 775 774 773 773 772 771 771 769 768 768 767 767 767 767 767 768 767 767 767 768 769 769 770 771 772 772 773 773 773 774
870 874 872 870 873 873 871 869 867 866 864 860 858 856 853 851 848 846 843 841 838 835 833 830 828 825 823 820 818 816 813 811 808 806 804 802 800 797 795 793 791 789 788 786 784 783 781 780 779 778 777 776 775 774 773 772 771 770 770 769 768 767 766 765 765 765 764 765 764 764 765 765 765 765 765 766 766 767 768 769 769 770 770 770 771
870 874 871 870 873 872 868 868 867 866 863 859 857 854 853 851 848 845 843 840 837 834 832 829 827 824 822 819 817 814 812 809 806 804 802 799 798 795 793 791 788 787 785 783 782 780 779 777 776 775 774 773 772 771 770 769 768 767 766 766 765 764 763 762 762 762 762 762 762 762 762 762 762 762 762 763 764 764 765 765 766 767 767 767 768
872 872 871 872 873 870 867 867 867 866 862 860 857 854 852 850 847 844 842 839 836 834 831 829 826 823 820 818 815 813 810 808 805 802 800 797 795 793 791 789 786 784 782 780 779 777 776 774 773 771 770 770 769 768 767 766 765 764 764 763 762 760 760 759 759 759 759 760 759 759 759 759 759 759 759 760 761 761 762 763 763 763 764 764 765
870 869 872 874 872 868 867 867 867 865 862 859 857 855 852 849 847 844 841 838 836 833 830 828 825 822 819 816 814 811 808 806 803 800 798 795 793 791 789 786 784 781 779 777 775 774 772 771 769 768 767 766 765 764 764 763 762 762 761 760 759 758 757 757 756 756 756 757 756 756 756 756 756 756 756 757 758 758 759 760 760 760 761 761 761
867 867 873 873 869 868 868 866 866 864 861 858 856 854 852 849 846 843 840 838 835 832 830 827 824 821 818 815 812 810 807 804 802 799 796 794 791 789 786 784 781 779 776 774 772 771 769 767 766 765 763 762 762 761 761 760 759 759 758 758 757 756 755 754 754 754 754 754 754 753 753 753 753 753 753 754 754 755 755 756 756 757 758 758 758
867 867 871 871 869 868 867 866 865 863 861 858 856 854 850 848 846 843 840 837 834 832 829 826 823 820 817 814 811 808 805 803 800 797 794 792 789 786 784 781 779 776 773 771 769 767 766 764 762 761 760 759 758 758 757 756 756 756 755 755 754 753 752 752 752 751 751 751 750 750 750 750 749 749 749 750 751 751 752 753 753 754 755 755 755
869 868 869 869 868 866 865 865 864 862 861 858 855 853 850 847 844 842 840 837 833 831 828 825 822 819 816 813 810 807 804 801 798 795 792 790 787 784 781 779 776 773 770 768 766 764 762 761 759 757 756 755 754 753 753 752 752 751 751 751 750 750 750 749 749 748 748 748 747 747 747 746 745 745 746 746 747 747 748 749 750 751 752 753 752
867 867 868 869 867 864 864 863 859 858 859 857 854 852 849 846 844 841 839 836 833 831 827 825 821 818 815 812 809 806 803 800 797 793 791 788 785 782 779 776 773 770 767 765 762 760 759 757 755 753 752 751 750 749 748 748 747 747 747 747 747 747 746 746 746 745 745 745 744 744 743 742 742 742 742 743 744 745 746 746 747 748 749 750 749
865 866 868 867 865 864 864 861 857 856 857 855 853 850 848 845 843 840 838 835 833 830 826 824 820 817 814 811 808 805 801 798 795 792 789 785 782 779 776 773 770 767 764 761 759 757 755 753 751 750 748 747 746 745 744 743 743 743 743 743 743 743 743 742 742 742 741 741 741 740 740 740 740 740 740 742 743 744 744 745 745 746 746 746 746
867 867 867 865 864 863 862 859 857 857 856 854 851 849 846 844 841 839 837 834 832 829 826 823 819 816 814 810 807 804 800 797 794 790 787 783 780 777 773 770 767 764 761 758 755 753 751 749 747 745 744 743 741 740 739 738 738 738 738 739 739 739 739 738 738 737 737 737 737 736 736 736 737 737 738 739 740 741 742 742 743 743 743 743 743
868 868 867 865 863 862 860 858 857 857 855 852 850 848 845 843 840 838 835 833 830 828 824 821 818 815 812 809 806 802 799 795 792 789 785 781 778 774 771 767 764 760 757 755 752 749 747 745 743 741 740 738 736 735 734 734 733 733 734 734 734 734 734 734 734 733 732 732 732 732 732 733 733 734 734 736 737 738 738 739 739 740 740 740 740
867 867 865 863 862 861 858 857 857 856 854 851 849 846 843 841 839 836 834 831 828 826 823 820 817 814 811 808 804 801 797 794 790 787 783 779 775 772 768 764 760 757 754 751 749 746 743 741 739 737 735 733 731 730 730 729 729 729 729 730 729 729 728 728 728 728 727 727 727 727 727 728 728 729 730 731 732 733 734 734 735 735 735 735 736
866 866 864 861 859 859 857 856 856 854 852 850 847 845 842 840 837 834 832 829 826 824 821 818 816 813 809 806 803 800 796 792 789 786 782 778 773 769 765 762 758 754 751 748 745 742 739 737 735 733 730 728 726 725 725 724 724 724 724 725 725 724 723 723 722 722 722 722 722 722 722 722 722 724 725 726 726 728 729 729 730 730 730 730 730
864 864 863 860 857 858 857 856 854 852 850 848 846 844 841 838 836 833 830 828 825 822 820 816 814 811 808 805 802 799 795 791 787 784 781 776 772 767 763 759 756 752 749 745 742 739 736 734 732 729 726 724 722 720 720 720 719 719 720 720 720 720 719 718 717 716 716 716 716 717 717 717 717 718 719 720 721 723 724 725 726 726 726 726 726
863 863 862 860 858 857 856 854 852 850 848 847 844 842 840 836 834 831 828 826 823 820 818 815 812 809 806 803 800 797 793 789 785 782 779 775 770 766 762 758 754 751 747 743 740 736 733 731 728 726 723 720 718 716 716 715 715 715 715 716 716 715 715 714 713 712 711 710 711 712 712 713 713 713 714 715 716 718 720 721 721 721 722 722 721
861 861 861 859 857 856 855 852 850 848 847 845 843 840 838 835 832 829 826 824 821 818 815 813 810 807 804 802 799 795 791 787 783 780 777 773 769 765 761 757 753 749 746 742 738 735 731 728 725 724 721 718 715 713 713 712 712 711 712 712 711 711 710 709 708 707 707 706 706 707 708 708 709 709 709 710 712 714 715 717 717 718 718 718 717
860 860 860 858 856 855 854 850 849 847 845 843 841 839 836 833 830 827 824 821 819 816 813 810 808 805 802 800 797 793 790 786 782 779 776 772 768 764 760 757 753 748 744 741 737 733 729 727 724 721 719 716 712 711 710 709 709 708 708 708 707 707 706 704 703 703 702 702 702 702 703 704 704 705 705 707 709 710 711 712 713 714 714 714 713
858 858 858 857 854 853 852 849 847 845 843 841 839 836 834 831 828 826 822 819 816 813 811 808 805 803 800 797 795 791 788 784 781 777 774 771 767 763 759 756 753 748 744 740 736 732 728 725 723 719 717 715 712 709 708 707 707 706 706 705 704 704 703 701 700 699 698 698 697 697 698 699 699 700 701 703 704 706 707 708 709 710 710 710 710
857 856 855 854 852 851 849 848 846 843 841 839 836 834 832 829 826 824 821 818 815 812 809 806 803 800 797 794 792 789 786 783 779 775 772 769 765 762 758 755 752 748 743 739 736 732 727 723 721 718 715 713 711 709 707 706 705 704 703 703 702 701 700 699 698 697 695 694 694 693 694 695 694 695 696 698 700 701 702 703 704 706 706 706 706
854 854 853 852 850 849 847 845 844 841 839 837 834 832 829 826 824 822 819 817 814 810 808 804 801 798 795 792 790 787 784 781 777 773 770 767 764 761 757 754 751 747 743 739 735 732 727 723 720 717 714 712 710 708 707 705 704 703 701 700 700 699 698 696 696 695 693 692 691 691 691 691 691 691 692 694 695 697 698 699 700 700 700 701 703
852 852 851 849 848 847 846 843 842 839 837 835 832 830 827 824 822 820 817 815 812 809 806 803 799 796 792 789 787 784 781 778 775 771 768 765 762 760 756 753 749 746 742 738 734 731 727 723 720 717 714 711 710 708 706 705 704 702 700 699 698 697 696 695 693 692 691 690 689 688 688 688 688 688 689 690 691 692 693 694 695 695 696 698 700
850 849 848 846 845 844 843 841 840 838 836 834 831 828 825 822 820 817 815 812 810 807 804 801 798 794 790 787 784 781 778 775 773 770 767 763 761 758 755 752 748 745 741 738 734 731 727 724 720 717 714 712 710 708 707 705 704 702 700 699 698 696 695 694 692 690 689 688 687 686 686 685 685 685 685 686 686 687 689 690 691 692 693 695 696
847 848 846 845 843 842 840 839 837 836 834 832 830 827 824 821 818 815 813 810 807 805 802 799 796 792 789 785 781 778 776 773 771 768 765 762 759 757 754 751 748 744 741 737 734 731 727 724 720 717 714 712 710 709 707 706 704 702 701 699 697 696 694 693 691 689 687 686 684 684 683 683 683 683 682 683 683 683 684 685 687 688 690 692 693
845 845 844 843 842 840 838 837 835 834 832 831 829 826 822 820 816 814 811 809 806 803 799 796 794 790 787 783 780 776 774 771 769 766 764 761 758 756 753 751 748 745 741 738 735 731 728 724 721 718 715 713 711 709 708 706 704 702 700 698 696 694 693 691 689 687 685 684 682 681 681 680 680 680 680 680 680 680 681 681 683 685 687 689 690
843 842 841 841 840 838 837 834 833 832 831 829 827 824 821 818 815 813 810 807 804 801 797 793 790 787 785 782 778 775 772 769 767 765 762 760 757 755 753 750 748 745 741 738 735 732 728 726 722 719 716 714 712 710 708 706 704 702 700 697 695 693 691 689 688 685 684 682 681 679 679 677 677 677 677 677 677 677 677 678 679 681 683 685 687
840 839 839 839 838 837 835 832 831 830 828 827 825 823 820 817 814 812 809 806 803 800 796 791 787 784 782 779 777 774 770 767 765 763 761 759 757 755 753 750 748 745 742 739 736 732 729 727 723 721 718 715 713 711 709 707 705 702 699 697 694 692 690 688 686 684 682 680 679 678 676 675 674 674 674 674 674 674 673 674 675 678 680 681 683
837 836 836 835 835 834 833 831 829 828 826 825 823 820 818 816 813 811 807 804 802 799 794 790 786 782 779 777 775 772 769 766 763 761 759 758 756 754 752 750 747 745 742 739 736 733 730 728 724 722 719 716 714 712 710 707 705 702 699 696 694 691 688 686 684 682 680 679 677 676 674 673 672 671 671 671 671 671 671 671 672 674 676 678 679
834 834 833 832 832 832 830 829 828 825 824 823 820 818 817 814 812 809 806 803 800 797 794 790 785 781 777 775 773 771 768 765 762 759 757 756 754 753 751 749 747 745 742 739 736 734 731 729 726 723 720 718 715 712 710 708 705 702 700 696 694 691 688 685 683 681 679 677 675 674 673 671 670 669 668 669 669 669 669 669 669 671 673 674 677
831 831 830 830 829 829 828 827 825 824 823 820 818 817 815 812 810 808 805 802 799 796 793 789 785 781 777 773 771 769 767 764 761 758 755 754 753 752 750 748 746 744 742 740 737 734 732 730 727 724 722 719 716 713 711 709 706 703 700 696 694 691 688 685 682 680 678 676 674 673 672 671 670 669 668 667 667 667 667 667 667 669 670 672 674
829 828 827 827 827 826 825 824 823 822 821 818 817 815 812 811 809 806 804 802 798 795 791 788 785 782 778 774 771 767 765 764 761 758 755 751 750 750 749 747 745 743 741 739 737 735 733 730 728 725 723 720 717 714 712 709 705 702 699 696 693 691 687 684 681 679 677 676 674 674 673 671 671 669 668 668 667 666 666 665 666 667 668 669 671
827 826 825 824 824 823 822 821 820 819 818 816 814 812 810 809 807 804 803 801 798 795 791 787 785 782 778 775 771 767 765 763 761 759 756 751 748 746 745 745 744 741 739 738 736 734 732 730 728 725 722 720 717 714 711 708 705 702 698 695 693 690 687 684 681 679 678 676 675 675 674 673 672 671 670 669 668 667 666 666 666 666 667 668 669